This demonstration page uses our WeatherBlox Daily Observations layout. Learn more.

40.92945, -100.16068

Hourly Observations for May 21, 2018

Temp ( °F °C ) Dew Point ( °F °C ) Humidity (%) Winds ( mph kmh ) Pressure ( in mb ) Visibility ( mi km ) Precip ( " mm )
12:15 am 00:15 Mostly Cloudy with Fog 48 8.8 47 8.2 96 96 SE 3 6 30.12 1020 0.5 0.80467 0 0
12:35 am 00:35 Mostly Cloudy with Mist and Fog 48 9.1 47 8.6 97 97 E 3 6 30.12 1020 1.25 2.011675 0 0
12:55 am 00:55 Mostly Cloudy with Fog 47 8.2 46 7.7 97 97 Calm 30.12 1020 0.5 0.80467 0 0
1:15 am 01:15 Mostly Cloudy with Mist and Fog 47 8.5 46 8 97 97 Calm 30.12 1020 1 1.60934 0 0
1:35 am 01:35 Cloudy with Fog 48 8.7 47 8.2 97 97 Calm 30.09 1019 0.25 0.402335 0 0
1:55 am 01:55 Cloudy with Fog 46 7.8 45 7.3 97 97 Calm 30.09 1019 0.25 0.402335 0 0
2:15 am 02:15 Cloudy with Fog 46 8 46 7.5 97 97 Calm 30.09 1019 0.25 0.402335 0 0
2:35 am 02:35 Mostly Cloudy with Mist and Fog 47 8.1 46 7.7 97 97 SW 6 9 30.09 1019 1.25 2.011675 0 0
2:55 am 02:55 Partly Cloudy with Mist and Fog 47 8.2 46 7.8 97 97 W 5 7 30.09 1019 1.25 2.011675 0 0
3:15 am 03:15 Partly Cloudy with Mist and Fog 47 8.1 46 7.7 97 97 W 6 9 30.09 1019 4 6.43736 0 0
3:35 am 03:35 Clear with Mist and Fog 47 8.6 47 8.2 97 97 W 6 9 30.09 1019 5 8.0467 0 0
3:55 am 03:55 Mostly Cloudy with Mist and Fog 48 8.8 47 8.5 98 98 W 3 6 30.09 1019 1.75 2.816345 0 0
4:15 am 04:15 Cloudy with Fog 47 8.5 47 8.1 97 97 Calm 30.09 1019 0.25 0.402335 0 0
4:35 am 04:35 Cloudy with Fog 46 7.6 45 7.2 97 97 Calm 30.09 1019 0.25 0.402335 0 0
4:55 am 04:55 Cloudy with Fog 45 7 44 6.6 97 97 Calm 30.12 1020 0.5 0.80467 0 0
5:15 am 05:15 Cloudy with Fog 44 6.9 44 6.5 97 97 Calm 30.12 1020 0.5 0.80467 0 0
5:35 am 05:35 Cloudy with Fog 45 7.1 44 6.8 98 98 Calm 30.12 1020 0.5 0.80467 0 0
5:55 am 05:55 Cloudy with Fog 45 7.3 45 7 98 98 Calm 30.12 1020 0.25 0.402335 0 0
6:15 am 06:15 Cloudy with Fog 44 6.7 43 6.3 97 97 Calm 30.12 1020 0.25 0.402335 0 0
6:35 am 06:35 Cloudy with Fog 45 7.1 44 6.7 97 97 Calm 30.12 1020 0.25 0.402335 0 0
6:55 am 06:55 Cloudy with Fog 47 8.3 46 7.9 97 97 Calm 30.09 1019 0.25 0.402335 0 0
7:15 am 07:15 Cloudy with Fog 48 8.8 47 8.4 97 97 Calm 30.06 1018 5 8.0467 0 0
7:35 am 07:35 Cloudy with Fog 49 9.5 48 9 97 97 Calm 30.09 1019 5 8.0467 0 0
7:55 am 07:55 Cloudy with Fog 49 9.7 49 9.4 98 98 Calm 30.09 1019 5 8.0467 0 0
8:15 am 08:15 Cloudy with Fog 50 10 49 9.5 97 97 Calm 30.09 1019 5 8.0467 0 0
8:35 am 08:35 Cloudy with Fog 50 10.1 49 9.7 97 97 Calm 30.09 1019 0.25 0.402335 0 0
8:55 am 08:55 Cloudy with Fog 51 10.7 51 10.3 97 97 Calm 30.06 1018 0.5 0.80467 0 0
9:15 am 09:15 Cloudy with Mist and Fog 53 11.4 52 10.9 97 97 S 3 6 30.06 1018 1.25 2.011675 0 0
9:35 am 09:35 Cloudy 54 12.1 53 11.7 97 97 Calm 30.06 1018 7 11.26538 0 0
9:55 am 09:55 Cloudy 56 13.4 55 13 97 97 SSE 3 6 30.06 1018 10 16.0934 0 0
10:15 am 10:15 Mostly Cloudy 58 14.4 57 14 97 97 SE 5 7 30 1016 10 16.0934 0 0
10:35 am 10:35 Partly Cloudy 59 14.8 58 14.4 97 97 SSE 7 11 30 1016 10 16.0934 0 0
10:55 am 10:55 Sunny 59 14.9 57 13.9 94 94 S 7 11 30 1016 10 16.0934 0 0
11:15 am 11:15 Sunny 60 15.8 58 14.6 93 93 S 8 13 30 1016 10 16.0934 0 0
11:35 am 11:35 Sunny 62 16.8 57 14.1 84 84 S 10 17 29.97 1015 10 16.0934 0 0
11:55 am 11:55 Sunny 65 18.5 58 14.2 76 76 S 10 17 29.97 1015 10 16.0934 0 0
12:15 pm 12:15 Sunny 67 19.3 58 14.4 73 73 S 13 20 29.97 1015 10 16.0934 0 0
12:35 pm 12:35 Sunny 67 19.5 57 13.7 69 69 SSE 12 19 29.97 1015 10 16.0934 0 0
12:55 pm 12:55 Sunny 68 19.8 56 13.3 66 66 S 14 22 29.97 1015 10 16.0934 0 0
1:15 pm 13:15 Partly Cloudy 68 20.2 57 14.1 68 68 S 15 24 29.94 1014 10 16.0934 0 0
1:35 pm 13:35 Mostly Cloudy 69 20.5 58 14.2 67 67 S 14 22 29.94 1014 10 16.0934 0 0
1:55 pm 13:55 Cloudy 68 20.1 58 14.5 70 70 S 12 19 29.97 1015 10 16.0934 0 0
2:15 pm 14:15 Mostly Cloudy 70 21.2 59 14.8 67 67 S 12 19 29.94 1014 10 16.0934 0 0
2:35 pm 14:35 Mostly Cloudy 71 21.7 58 14.7 65 65 S 14 22 29.91 1013 10 16.0934 0 0
2:55 pm 14:55 Mostly Cloudy 71 21.7 59 15 66 66 S 14 22 29.91 1013 10 16.0934 0 0
3:15 pm 15:15 Mostly Cloudy 72 22 59 15.1 65 65 S 14 22 29.91 1013 10 16.0934 0 0
3:35 pm 15:35 Cloudy 73 22.8 59 15 62 62 SSE 12 19 29.91 1013 10 16.0934 0 0
3:55 pm 15:55 Cloudy 73 22.9 60 15.5 63 63 S 13 20 29.88 1012 10 16.0934 0 0
4:15 pm 16:15 Mostly Cloudy 75 24.1 60 15.8 60 60 S 8 13 29.85 1011 10 16.0934 0 0
4:35 pm 16:35 Mostly Cloudy 75 23.8 60 15.5 60 60 S 10 17 29.85 1011 10 16.0934 0 0
4:55 pm 16:55 Cloudy 74 23.5 60 15.5 61 61 S 10 17 29.83 1010 10 16.0934 0 0
5:15 pm 17:15 Cloudy 75 23.8 60 15.6 60 60 S 10 17 29.83 1010 10 16.0934 0 0
5:35 pm 17:35 Mostly Cloudy 76 24.7 61 16.1 59 59 S 12 19 29.83 1010 10 16.0934 0 0
5:55 pm 17:55 Cloudy 75 24.1 60 15.5 59 59 S 15 24 29.83 1010 10 16.0934 0 0
6:15 pm 18:15 Cloudy 75 24 62 16.4 63 63 S 9 15 29.83 1010 10 16.0934 0 0
6:35 pm 18:35 Mostly Cloudy 75 24.1 61 16.2 61 61 S 9 15 29.83 1010 10 16.0934 0 0
6:55 pm 18:55 Mostly Cloudy 74 23.6 62 16.7 65 65 SSE 9 15 29.8 1009 10 16.0934 0 0
7:15 pm 19:15 Partly Cloudy 74 23.5 62 16.5 65 65 SSE 10 17 29.8 1009 10 16.0934 0 0
7:35 pm 19:35 Partly Cloudy 74 23.6 62 16.5 65 65 SSE 9 15 29.8 1009 10 16.0934 0 0
7:55 pm 19:55 Sunny 73 22.6 62 16.5 69 69 SE 9 15 29.8 1009 10 16.0934 0 0
8:15 pm 20:15 Sunny 72 22 62 16.7 72 72 ESE 9 15 29.83 1010 10 16.0934 0 0
8:35 pm 20:35 Sunny 71 21.5 62 16.6 74 74 SE 8 13 29.83 1010 10 16.0934 0 0
8:55 pm 20:55 Sunny 70 21.2 62 16.5 75 75 SE 8 13 29.85 1011 10 16.0934 0 0
9:15 pm 21:15 Clear 69 20.7 62 16.5 77 77 SE 7 11 29.85 1011 10 16.0934 0 0
9:35 pm 21:35 Clear 69 20.5 62 16.4 77 77 ESE 8 13 29.85 1011 10 16.0934 0 0
9:55 pm 21:55 Clear 68 20.1 62 16.5 80 80 SE 9 15 29.85 1011 10 16.0934 0 0
10:15 pm 22:15 Clear 68 19.8 61 16.3 80 80 SE 9 15 29.85 1011 10 16.0934 0 0
10:35 pm 22:35 Clear 67 19.6 61 16.2 81 81 SE 9 15 29.85 1011 10 16.0934 0 0
10:55 pm 22:55 Clear 66 19.1 61 16 82 82 SE 9 15 29.88 1012 10 16.0934 0 0
11:15 pm 23:15 Clear 66 19 61 15.9 82 82 SE 10 17 29.88 1012 10 16.0934 0 0
11:35 pm 23:35 Partly Cloudy 65 18.5 60 15.7 84 84 ESE 10 17 29.88 1012 10 16.0934 0 0
11:55 pm 23:55 Mostly Cloudy 65 18.5 60 15.6 83 83 SE 9 15 29.88 1012 10 16.0934 0 0

Powered by AerisWeather